Find WHDW 09-02

NORAD ID: 65229 Int'l Des: 2025-178 Owner: ZXW Country: CN Constellation: xingwang operational
LEOCIRCULARPOLARONEWEB_TYPE

リアルタイム位置

3D地球を読み込み中...

WHDW 09-02について

説明を読み込み中...

次回通過

Passes for default location (London). Set your location on the main map for personalized predictions.

高度履歴

Loading altitude history...

軌道要素

1 65229U 25178B 26106.24902001 .00000042 00000-0 62753-4 0 9993
2 65229 86.5033 34.4622 0001760 73.2485 286.8842 13.24413587 32118
Epoch: Apr 16, 2026 • Age: 12 hours

現在のステータス

高度 1178.6 km
速度 7.26 km/s
衛星直下点 -26.15°S, 102.74°E
打ち上げ日 Aug 17, 2025
運用期間 0.6 years
タイプ other

技術仕様

分類 Payload
質量 800.00 kg
乾燥質量 800.00 kg
総質量 800.00 kg
長さ 3.00 m
直径 1.00 m
スパン 10.00 m
形状 Box + 2 Pan
製造者 CAST
バスタイプ Xingwang C
フェーズステータス In Orbit
所有者/国 ZXW/CN

Most Searched